When you browse on this site, cookies collect data to enhance your experience and personalize the content and advertising you see.
Visit our Privacy Policy to learn more. By continuing to use the site, you agree to this use of cookies and data.
  • In France
  • List of Countries
  • For 7 days
  • Water Temperature
  • Weather Map
  • Weather Widgets
  • user-avatar
    Login

    Hourly Weather Dahab

    Today, 18 November, Monday

    Time Temperature Precipitation Wind Pressure Humidity
    00:00 +17°C° 0 mm 2 mps 713 mmHg 66%
    01:00 +17°C° 0 mm 2 mps 712 mmHg 65%
    02:00 +17°C° 0 mm 2 mps 712 mmHg 66%
    03:00 +17°C° 0 mm 2 mps 712 mmHg 68%
    04:00 +17°C° 0 mm 2 mps 713 mmHg 70%
    05:00 +16°C° 0 mm 2 mps 713 mmHg 72%
    06:00 +17°C° 0 mm 2 mps 713 mmHg 66%
    07:00 +19°C° 0 mm 2 mps 713 mmHg 60%
    08:00 +20°C° 0 mm 2 mps 714 mmHg 55%
    09:00 +21°C° 0 mm 3 mps 714 mmHg 51%
    10:00 +22°C° 0 mm 3 mps 714 mmHg 47%
    11:00 +23°C° 0 mm 4 mps 714 mmHg 43%
    12:00 +24°C° 0 mm 3 mps 714 mmHg 42%
    13:00 +24°C° 0 mm 3 mps 713 mmHg 42%
    14:00 +24°C° 0 mm 3 mps 713 mmHg 41%
    15:00 +23°C° 0 mm 2 mps 713 mmHg 44%
    16:00 +22°C° 0 mm 1 mps 713 mmHg 47%
    17:00 +21°C° 0 mm 1 mps 713 mmHg 51%
    18:00 +20°C° 0 mm 1 mps 713 mmHg 51%
    19:00 +20°C° 0 mm 1 mps 714 mmHg 52%
    20:00 +19°C° 0 mm 1 mps 714 mmHg 53%
    21:00 +18°C° 0 mm 2 mps 714 mmHg 53%
    22:00 +17°C° 0 mm 2 mps 714 mmHg 53%
    23:00 +17°C° 0 mm 2 mps 714 mmHg 54%

    Tomorrow, 19 November, Tuesday

    Time Temperature Precipitation Wind Pressure Humidity
    00:00 +16°C° 0 mm 2 mps 714 mmHg 55%
    01:00 +16°C° 0 mm 2 mps 714 mmHg 57%
    02:00 +16°C° 0 mm 3 mps 714 mmHg 58%
    03:00 +14°C° 0 mm 3 mps 714 mmHg 59%
    04:00 +14°C° 0 mm 3 mps 714 mmHg 60%
    05:00 +14°C° 0 mm 3 mps 714 mmHg 62%
    06:00 +16°C° 0 mm 3 mps 714 mmHg 55%
    07:00 +18°C° 0 mm 3 mps 715 mmHg 48%
    08:00 +19°C° 0 mm 3 mps 715 mmHg 42%
    09:00 +20°C° 0 mm 3 mps 715 mmHg 38%
    10:00 +21°C° 0 mm 4 mps 715 mmHg 35%
    11:00 +23°C° 0 mm 4 mps 715 mmHg 32%
    12:00 +23°C° 0 mm 4 mps 715 mmHg 31%
    13:00 +23°C° 0 mm 4 mps 714 mmHg 30%
    14:00 +25°C° 0 mm 4 mps 714 mmHg 29%
    15:00 +22°C° 0 mm 3 mps 714 mmHg 32%
    16:00 +20°C° 0 mm 2 mps 714 mmHg 35%
    17:00 +20°C° 0 mm 1 mps 714 mmHg 39%
    18:00 +19°C° 0 mm 1 mps 714 mmHg 38%
    19:00 +17°C° 0 mm 2 mps 714 mmHg 36%
    20:00 +17°C° 0 mm 2 mps 714 mmHg 35%
    21:00 +16°C° 0 mm 2 mps 714 mmHg 36%
    22:00 +16°C° 0 mm 2 mps 714 mmHg 36%
    23:00 +15°C° 0 mm 2 mps 714 mmHg 36%

    Day after tomorrow, 20 November, Wednesday

    Time Temperature Precipitation Wind Pressure Humidity
    00:00 +15°C° 0 mm 2 mps 714 mmHg 37%
    01:00 +15°C° 0 mm 2 mps 714 mmHg 38%
    02:00 +14°C° 0 mm 2 mps 713 mmHg 39%
    03:00 +14°C° 0 mm 2 mps 713 mmHg 40%
    04:00 +13°C° 0 mm 2 mps 713 mmHg 42%
    05:00 +13°C° 0 mm 2 mps 713 mmHg 44%
    06:00 +15°C° 0 mm 2 mps 714 mmHg 37%
    07:00 +17°C° 0 mm 2 mps 715 mmHg 30%
    08:00 +19°C° 0 mm 2 mps 715 mmHg 24%
    09:00 +20°C° 0 mm 3 mps 715 mmHg 22%
    10:00 +22°C° 0 mm 3 mps 715 mmHg 21%
    11:00 +23°C° 0 mm 4 mps 715 mmHg 19%
    12:00 +24°C° 0 mm 3 mps 715 mmHg 20%
    13:00 +24°C° 0 mm 3 mps 715 mmHg 20%
    14:00 +25°C° 0 mm 3 mps 714 mmHg 21%
    15:00 +21°C° 0 mm 3 mps 714 mmHg 25%
    16:00 +19°C° 0 mm 2 mps 714 mmHg 29%
    17:00 +18°C° 0 mm 1 mps 714 mmHg 33%
    18:00 +18°C° 0 mm 1 mps 714 mmHg 31%
    19:00 +16°C° 0 mm 2 mps 714 mmHg 30%
    20:00 +15°C° 0 mm 2 mps 714 mmHg 28%
    21:00 +15°C° 0 mm 2 mps 714 mmHg 27%
    22:00 +14°C° 0 mm 2 mps 714 mmHg 26%
    23:00 +14°C° 0 mm 2 mps 714 mmHg 25%

    21 November, Thursday

    Time Temperature Precipitation Wind Pressure Humidity
    00:00 +13°C° 0 mm 2 mps 714 mmHg 27%
    01:00 +13°C° 0 mm 2 mps 714 mmHg 28%
    02:00 +13°C° 0 mm 2 mps 714 mmHg 30%
    03:00 +12°C° 0 mm 2 mps 714 mmHg 29%
    04:00 +12°C° 0 mm 1 mps 714 mmHg 28%
    05:00 +12°C° 0 mm 1 mps 714 mmHg 28%
    06:00 +14°C° 0 mm 1 mps 714 mmHg 23%
    07:00 +18°C° 0 mm 1 mps 715 mmHg 18%
    08:00 +20°C° 0 mm 1 mps 715 mmHg 14%
    09:00 +20°C° 0 mm 2 mps 715 mmHg 14%
    10:00 +23°C° 0 mm 2 mps 715 mmHg 15%
    11:00 +24°C° 0 mm 3 mps 715 mmHg 15%
    12:00 +24°C° 0 mm 2 mps 715 mmHg 17%
    13:00 +24°C° 0 mm 2 mps 714 mmHg 19%
    14:00 +24°C° 0 mm 2 mps 714 mmHg 21%
    15:00 +21°C° 0 mm 2 mps 714 mmHg 26%
    16:00 +20°C° 0 mm 1 mps 714 mmHg 31%
    17:00 +16°C° 0 mm 0 mps 713 mmHg 36%
    18:00 +16°C° 0 mm 0 mps 714 mmHg 38%
    19:00 +15°C° 0 mm 0 mps 714 mmHg 40%
    20:00 +14°C° 0 mm 0 mps 714 mmHg 42%
    21:00 +15°C° 0 mm 1 mps 714 mmHg 41%
    22:00 +15°C° 0 mm 1 mps 714 mmHg 41%
    23:00 +14°C° 0 mm 1 mps 714 mmHg 41%

    22 November, Friday

    Time Temperature Precipitation Wind Pressure Humidity
    00:00 +14°C° 0 mm 1 mps 713 mmHg 39%
    01:00 +13°C° 0 mm 1 mps 713 mmHg 37%
    02:00 +13°C° 0 mm 1 mps 713 mmHg 35%
    03:00 +13°C° 0 mm 1 mps 713 mmHg 33%
    04:00 +13°C° 0 mm 1 mps 713 mmHg 31%
    05:00 +13°C° 0 mm 1 mps 713 mmHg 30%
    06:00 +15°C° 0 mm 1 mps 713 mmHg 24%
    07:00 +19°C° 0 mm 1 mps 714 mmHg 19%
    08:00 +22°C° 0 mm 1 mps 714 mmHg 13%
    09:00 +23°C° 0 mm 1 mps 714 mmHg 14%
    10:00 +24°C° 0 mm 2 mps 714 mmHg 14%
    11:00 +25°C° 0 mm 2 mps 714 mmHg 14%
    12:00 +25°C° 0 mm 2 mps 714 mmHg 15%
    13:00 +25°C° 0 mm 2 mps 713 mmHg 17%
    14:00 +26°C° 0 mm 2 mps 713 mmHg 18%
    15:00 +23°C° 0 mm 1 mps 713 mmHg 23%
    16:00 +21°C° 0 mm 1 mps 713 mmHg 28%
    17:00 +17°C° 0 mm 0 mps 712 mmHg 34%
    18:00 +17°C° 0 mm 0 mps 713 mmHg 33%
    19:00 +18°C° 0 mm 1 mps 713 mmHg 33%
    20:00 +18°C° 0 mm 1 mps 713 mmHg 33%
    21:00 +16°C° 0 mm 1 mps 713 mmHg 33%
    22:00 +16°C° 0 mm 1 mps 713 mmHg 33%
    23:00 +16°C° 0 mm 1 mps 713 mmHg 33%

    23 November, Saturday

    Time Temperature Precipitation Wind Pressure Humidity
    00:00 +15°C° 0 mm 1 mps 713 mmHg 34%
    01:00 +15°C° 0 mm 2 mps 713 mmHg 35%
    02:00 +15°C° 0 mm 2 mps 713 mmHg 35%
    03:00 +15°C° 0 mm 2 mps 713 mmHg 34%
    04:00 +14°C° 0 mm 2 mps 713 mmHg 33%
    05:00 +14°C° 0 mm 2 mps 713 mmHg 31%
    06:00 +17°C° 0 mm 2 mps 713 mmHg 26%
    07:00 +19°C° 0 mm 2 mps 714 mmHg 21%
    08:00 +23°C° 0 mm 2 mps 714 mmHg 17%
    09:00 +24°C° 0 mm 3 mps 714 mmHg 17%
    10:00 +25°C° 0 mm 3 mps 715 mmHg 18%
    11:00 +26°C° 0 mm 4 mps 715 mmHg 19%
    12:00 +26°C° 0 mm 4 mps 714 mmHg 19%
    13:00 +26°C° 0 mm 4 mps 714 mmHg 20%
    14:00 +26°C° 0 mm 4 mps 713 mmHg 20%
    15:00 +23°C° 0 mm 4 mps 713 mmHg 24%
    16:00 +21°C° 0 mm 3 mps 713 mmHg 27%
    17:00 +19°C° 0 mm 3 mps 713 mmHg 31%
    18:00 +19°C° 0 mm 3 mps 713 mmHg 30%
    19:00 +18°C° 0 mm 3 mps 713 mmHg 30%
    20:00 +17°C° 0 mm 3 mps 714 mmHg 29%
    21:00 +17°C° 0 mm 3 mps 714 mmHg 30%
    22:00 +17°C° 0 mm 3 mps 714 mmHg 30%
    23:00 +16°C° 0 mm 3 mps 714 mmHg 31%
    Show more